Weather History for Middletown, PA

Change the Weather History Date:

Wednesday, May 15, 2013

  Actual Average Record
Temperature  
Mean Temperature 63 °F 62 °F  
Max Temperature 75 °F 72 °F 94 °F (1962)
Min Temperature 50 °F 52 °F 37 °F (1939)
Degree Days  
Heating Degree Days 2 5  
Month to date heating degree days 109 96  
Since 1 July heating degree days 5074 5199  
Cooling Degree Days 0 2  
Month to date cooling degree days 0 17  
Year to date cooling degree days 7 24  
Growing Degree Days 12 (Base 50)    
Moisture  
Dew Point 51 °F    
Average Humidity 75    
Maximum Humidity 97    
Minimum Humidity 53    
Precipitation  
Precipitation 0.04 in 0.12 in 1.55 in (1950)
Month to date precipitation 1.80 1.81  
Year to date precipitation 11.39 13.55  
Snow  
Snow 0.00 in - - ()
Month to date snowfall 0.0  
Since 1 July snowfall 17.0  
Snow Depth 0.00 in    
Sea Level Pressure  
Sea Level Pressure 29.85 in    
Wind  
Wind Speed 4 mph (ESE)    
Max Wind Speed 18 mph    
Max Gust Speed 23 mph    
Visibility 10 miles    
Events Rain    
T = Trace of Precipitation, MM = Missing Value Source: NWS Daily Summary

Daily Weather History Graph

Daily Weather History Graph

Search for Another Location

Airport:

Trip Planner

Search our weather history database for the weather conditions in past years. The results will help you decide how hot, cold, wet, or windy it might be!

Date:

Astronomy

May. 15, 2013 Rise Set
Actual Time 5:51 AM EDT 8:16 PM EDT
Civil Twilight 5:20 AM EDT 8:47 PM EDT
Nautical Twilight 4:42 AM EDT 9:25 PM EDT
Astronomical Twilight 4:00 AM EDT 10:07 PM EDT
Moon 10:24 AM EDT (5/15) 12:01 AM EDT (5/15)
Length of Visible Light 15h 26m
Length of Day
14h 25m
Waxing Crescent, 26% of the Moon is Illuminated
May 15
Waxing Crescent
May 18
First Quarter
May 25
Full
May 31
Last Quarter
Jun 8
New

Hourly Weather History & Observations

Time (EDT) Temp. Dew Point Humidity Pressure Visibility Wind Dir Wind Speed Gust Speed Precip Events Conditions
12:56 AM 51.1 °F 45.0 °F 80% 30.04 in 10.0 mi SE 5.8 mph - N/A   Overcast
1:56 AM 51.1 °F 44.1 °F 77% 30.02 in 10.0 mi ESE 4.6 mph - N/A   Overcast
2:56 AM 51.1 °F 44.1 °F 77% 30.00 in 10.0 mi East 3.5 mph - N/A   Overcast
3:56 AM 51.1 °F 44.1 °F 77% 29.99 in 10.0 mi ENE 4.6 mph - N/A   Overcast
4:56 AM 51.1 °F 44.1 °F 77% 29.98 in 10.0 mi East 4.6 mph - N/A   Overcast
5:56 AM 50.0 °F 44.1 °F 80% 29.97 in 10.0 mi East 5.8 mph - N/A   Overcast
6:56 AM 51.1 °F 44.1 °F 77% 29.96 in 10.0 mi ESE 5.8 mph - N/A   Overcast
7:56 AM 53.1 °F 45.0 °F 74% 29.94 in 10.0 mi ESE 6.9 mph - N/A   Overcast
8:56 AM 54.0 °F 46.0 °F 75% 29.96 in 10.0 mi Calm Calm - N/A   Overcast
9:56 AM 55.9 °F 48.9 °F 77% 29.92 in 10.0 mi South 3.5 mph - N/A   Overcast
10:56 AM 60.1 °F 51.1 °F 72% 29.89 in 10.0 mi ESE 4.6 mph - 0.00 in   Overcast
11:56 AM 61.0 °F 50.0 °F 67% 29.88 in 10.0 mi SSE 4.6 mph - N/A   Clear
12:56 PM 60.1 °F 48.9 °F 67% 29.90 in 10.0 mi West 4.6 mph - 0.00 in Rain Light Rain
1:56 PM 57.9 °F 52.0 °F 81% 29.80 in 9.0 mi South 13.8 mph - 0.04 in Rain Light Rain
2:56 PM 64.0 °F 54.0 °F 70% 29.78 in 10.0 mi Calm Calm - 0.00 in   Mostly Cloudy
3:56 PM 69.1 °F 55.9 °F 63% 29.74 in 10.0 mi Variable 3.5 mph - N/A   Mostly Cloudy
4:56 PM 73.0 °F 55.9 °F 55% 29.71 in 10.0 mi Variable 5.8 mph - N/A   Scattered Clouds
5:56 PM 73.9 °F 57.0 °F 55% 29.70 in 10.0 mi East 4.6 mph - N/A   Scattered Clouds
6:56 PM 73.0 °F 57.9 °F 59% 29.69 in 10.0 mi Calm Calm - 0.00 in   Scattered Clouds
7:56 PM 66.9 °F 59.0 °F 76% 29.70 in 9.0 mi Calm Calm - N/A   Mostly Cloudy
8:56 PM 66.9 °F 59.0 °F 76% 29.70 in 10.0 mi SE 3.5 mph - N/A   Scattered Clouds
9:56 PM 66.0 °F 59.0 °F 78% 29.72 in 10.0 mi Calm Calm - N/A   Mostly Cloudy
10:56 PM 64.0 °F 59.0 °F 84% 29.73 in 9.0 mi Calm Calm - N/A   Mostly Cloudy
11:56 PM 61.0 °F 59.0 °F 93% 29.73 in 8.0 mi NW 3.5 mph - N/A   Mostly Cloudy